Zurück zum Katalog

ONEWEB-0194

AktivKommunikationPO
NORAD 48237·PAYLOAD·🇬🇧 United Kingdom

Gestartet Apr 25, 2021 von Vostochny Cosmodrome

Loading…

Nächste Überflüge (nächste 24 Stunden)

TLE

AktuellSource: CelesTrak SupGP

Epoche: Sep 14, 2026, 17:49 UTC

1 48237C 21031AD  26257.74250417 -.00000489  00000+0 -13215-2 0  2576
2 48237  87.8899 271.8490 0002101  88.3553  12.7109 13.14505891    10

Verfolge ONEWEB-0194 in Echtzeit mit AllMySat

Download on the App Store